Temp
1 0 -0 -1 -2 -5 -5 -4 -6 -6 -5 -6 -6 -6 -6 -6 -5 -5 -6 -6 -6 -6 -6 -6 -6 -6 -6 -6 -5 -6 -6 -6 -7 -6 -4 -4 -4 -5 -5 -4 -3 -3 -3 -1
1 0 0 -0 -1 -3 -5 -6 -6 -6 -6 -5 -5 -5 -5 -5 -6 -6 -7 -6 -7 -6 -7 -7 -7 -6 -6 -6 -7 -7 -7 -7 -7 -6 -4 -4 -6 -5 -6 -6 -5 -3 -3 -1
1 1 0 -1 -1 -3 -4 -5 -5 -5 -6 -6 -6 -7 -6 -6 -7 -6 -7 -7 -7 -7 -7 -7 -7 -7 -7 -8 -7 -7 -8 -8 -8 -7 -7 -7 -7 -5 -5 -7 -6 -5 -5 -4
2 1 0 -0 -1 -2 -4 -6 -6 -7 -6 -7 -6 -7 -7 -7 -7 -7 -7 -7 -7 -7 -8 -8 -8 -8 -8 -7 -7 -8 -8 -8 -8 -8 -8 -8 -7 -7 -5 -6 -6 -6 -5 -5
1 0 -0 -1 -2 -3 -4 -5 -5 -6 -7 -8 -8 -8 -8 -8 -8 -8 -8 -8 -8 -8 -8 -9 -9 -8 -8 -9 -8 -8 -9 -8 -8 -8 -8 -8 -8 -6 -6 -5 -5 -5 -5 -5
-0 -1 -2 -2 -3 -4 -4 -5 -5 -6 -6 -6 -8 -8 -8 -8 -8 -8 -9 -9 -8 -8 -8 -8 -9 -9 -9 -9 -9 -9 -9 -9 -9 -8 -8 -8 -8 -6 -6 -7 -6 -6 -6 -6
-1 -2 -2 -3 -4 -4 -5 -5 -6 -6 -6 -7 -8 -8 -9 -9 -9 -10 -9 -9 -9 -9 -9 -9 -9 -9 -9 -8 -8 -8 -9 -9 -9 -9 -9 -12 -6 -6 -7 -7 -6 -6 -6 -6
-2 -2 -3 -4 -4 -5 -5 -6 -7 -7 -7 -7 -7 -8 -9 -10 -10 -9 -10 -9 -10 -10 -10 -10 -10 -10 -9 -8 -8 -8 -8 -10 -9 -9 -9 -8 -7 -7 -8 -8 -8 -8 -7 -7
-2 -3 -3 -4 -4 -5 -6 -6 -7 -7 -7 -7 -8 -9 -10 -11 -10 -10 -10 -10 -10 -10 -10 -11 -11 -10 -10 -9 -9 -8 -8 -9 -9 -9 -9 -13 -8 -8 -8 -8 -8 -9 -9 -9
-2 -3 -4 -4 -5 -6 -6 -7 -8 -8 -8 -8 -10 -10 -10 -11 -11 -12 -11 -11 -11 -11 -11 -12 -11 -11 -10 -10 -9 -9 -8 -9 -9 -9 -9 -9 -8 -8 -8 -8 -9 -9 -9 -8
-3 -4 -4 -4 -6 -6 -7 -7 -9 -10 -10 -8 -9 -11 -11 -12 -12 -12 -12 -12 -11 -11 -11 -11 -11 -11 -10 -10 -10 -10 -9 -9 -9 -10 -10 -11 -9 -9 -8 -10 -9 -9 -9 -9
-3 -4 -4 -5 -6 -7 -7 -7 -9 -10 -12 -10 -11 -11 -11 -12 -12 -12 -12 -13 -13 -12 -12 -12 -12 -11 -10 -10 -11 -10 -10 -10 -10 -10 -9 -10 -9 -9 -10 -10 -10 -9 -9 -9
-3 -4 -4 -5 -6 -7 -7 -8 -8 -10 -12 -12 -11 -11 -11 -11 -11 -12 -13 -13 -13 -12 -13 -13 -12 -12 -12 -12 -11 -10 -11 -11 -10 -10 -10 -10 -10 -10 -10 -11 -10 -10 -10 -10
-3 -4 -5 -5 -6 -7 -7 -8 -9 -12 -12 -12 -11 -11 -11 -11 -12 -12 -12 -13 -13 -13 -13 -13 -13 -13 -13 -12 -12 -12 -11 -11 -11 -11 -11 -11 -10 -10 -10 -11 -11 -11 -11 -10
-4 -5 -5 -6 -6 -7 -8 -8 -10 -11 -12 -12 -11 -11 -11 -11 -12 -12 -13 -13 -13 -13 -12 -12 -12 -13 -13 -12 -12 -12 -11 -11 -12 -11 -11 -11 -11 -11 -11 -11 -11 -11 -11 -10
-4 -5 -6 -6 -7 -7 -8 -8 -10 -11 -12 -12 -11 -11 -12 -12 -12 -13 -13 -13 -13 -13 -13 -13 -13 -12 -13 -12 -12 -12 -12 -12 -12 -12 -12 -12 -12 -12 -12 -12 -11 -11 -11 -11
-4 -5 -6 -7 -7 -8 -9 -11 -11 -12 -12 -13 -12 -12 -12 -12 -12 -12 -13 -13 -12 -13 -13 -13 -13 -13 -13 -12 -13 -13 -13 -13 -13 -13 -12 -12 -12 -12 -12 -12 -12 -12 -11 -11
-5 -6 -6 -7 -8 -8 -10 -11 -12 -12 -12 -12 -12 -12 -12 -12 -12 -13 -13 -13 -13 -14 -14 -14 -14 -13 -13 -13 -14 -14 -14 -14 -14 -13 -13 -13 -13 -13 -13 -12 -12 -12 -11 -11
-5 -6 -6 -7 -8 -10 -11 -11 -12 -12 -13 -13 -13 -12 -12 -12 -13 -13 -13 -13 -14 -14 -14 -14 -14 -14 -14 -15 -15 -15 -15 -14 -14 -14 -14 -14 -14 -13 -13 -13 -12 -12 -12 -11
-5 -6 -7 -8 -9 -10 -10 -11 -12 -12 -12 -13 -12 -12 -13 -13 -13 -13 -14 -14 -14 -14 -14 -15 -15 -15 -16 -16 -16 -16 -16 -16 -16 -16 -16 -15 -15 -15 -14 -14 -13 -13 -13 -12
-5 -7 -8 -9 -10 -11 -11 -12 -12 -12 -12 -12 -12 -13 -13 -13 -13 -13 -14 -14 -14 -14 -15 -15 -15 -16 -16 -16 -16 -16 -16 -16 -16 -16 -16 -15 -15 -15 -15 -15 -14 -14 -13 -13
-7 -8 -9 -10 -11 -11 -12 -12 -12 -13 -13 -13 -13 -14 -14 -13 -13 -13 -14 -14 -15 -15 -15 -15 -15 -16 -16 -16 -16 -16 -16 -16 -16 -16 -16 -16 -16 -15 -15 -15 -15 -15 -14 -14
-8 -10 -11 -12 -12 -12 -13 -13 -13 -14 -14 -14 -14 -14 -14 -13 -14 -14 -14 -14 -15 -15 -15 -15 -15 -16 -16 -16 -16 -16 -16 -16 -16 -16 -16 -16 -16 -16 -16 -16 -15 -15 -15 -15
-9 -11 -12 -12 -13 -13 -14 -14 -14 -14 -14 -13 -14 -14 -14 -14 -14 -14 -14 -15 -15 -15 -15 -15 -15 -16 -16 -16 -16 -16 -16 -16 -16 -16 -16 -16 -16 -16 -16 -16 -16 -16 -16 -16
-10 -11 -12 -14 -13 -14 -14 -14 -14 -14 -14 -13 -13 -14 -14 -14 -14 -14 -14 -15 -15 -15 -15 -15 -16 -16 -16 -17 -17 -17 -17 -16 -16 -16 -16 -16 -17 -17 -17 -17 -17 -17 -17 -17
-11 -12 -12 -13 -14 -14 -14 -14 -14 -14 -14 -14 -14 -15 -15 -15 -15 -15 -15 -15 -15 -15 -15 -16 -16 -17 -17 -17 -17 -17 -17 -17 -17 -17 -17 -17 -17 -17 -18 -18 -18 -17 -17 -17
-11 -12 -13 -14 -15 -15 -15 -15 -14 -14 -14 -15 -15 -15 -15 -15 -16 -16 -16 -15 -15 -16 -17 -18 -18 -19 -19 -19 -19 -19 -19 -19 -19 -18 -18 -18 -18 -18 -19 -19 -19 -19 -19 -18
Height
3074 3070 3065 3062 3058 3054 3049 3047 3045 3044 3042 3041 3038 3036 3032 3032 3029 3028 3026 3023 3020 3018 3017 3011 3010 3007 3007 3005 3003 3000 2999 2993 2987 2986 2980 2976 2975 2976 2976 2972 2965 2960 2954 2939
3071 3067 3064 3060 3056 3052 3048 3043 3039 3038 3037 3035 3031 3029 3029 3026 3024 3023 3020 3019 3016 3014 3012 3011 3005 3003 3002 3001 3001 2999 2997 2993 2987 2981 2982 2977 2974 2973 2975 2973 2966 2956 2953 2942
3069 3066 3062 3057 3053 3048 3044 3040 3038 3035 3031 3030 3027 3025 3023 3022 3020 3017 3015 3012 3011 3008 3006 3007 3001 3000 2998 2997 2996 2994 2993 2989 2990 2987 2984 2981 2975 2966 2968 2971 2965 2957 2947 2940
3067 3063 3058 3054 3049 3045 3042 3038 3035 3032 3027 3026 3025 3022 3019 3017 3016 3012 3010 3005 3005 3003 3000 2998 2996 2994 2992 2992 2990 2988 2988 2983 2983 2980 2979 2977 2972 2967 2959 2959 2958 2955 2940 2939
3064 3059 3055 3050 3046 3042 3039 3036 3031 3026 3021 3020 3020 3019 3014 3011 3009 3008 3004 3002 3001 2998 2995 2994 2990 2989 2988 2982 2983 2982 2980 2977 2976 2971 2972 2971 2965 2959 2956 2952 2949 2943 2941 2930
3061 3057 3051 3048 3044 3039 3035 3032 3029 3022 3017 3013 3012 3009 3008 3006 3004 2999 2997 2996 2994 2990 2989 2987 2983 2981 2979 2977 2976 2975 2975 2974 2973 2964 2967 2965 2959 2952 2950 2948 2945 2942 2938 2936
3058 3053 3048 3044 3040 3036 3031 3028 3022 3018 3011 3009 3006 3002 3001 3000 2999 2993 2990 2990 2987 2985 2981 2978 2976 2974 2970 2968 2967 2967 2966 2968 2969 2964 2964 2965 2952 2949 2947 2944 2943 2939 2935 2930
3054 3049 3045 3041 3036 3032 3027 3023 3019 3014 3005 3003 3002 2997 2993 2991 2990 2987 2983 2981 2980 2977 2975 2972 2966 2965 2962 2959 2958 2959 2958 2962 2962 2961 2959 2954 2946 2946 2943 2942 2942 2937 2933 2929
3050 3046 3040 3035 3030 3026 3022 3016 3013 3010 3005 2999 2994 2990 2988 2985 2982 2979 2977 2976 2975 2974 2970 2968 2964 2962 2960 2958 2957 2957 2956 2956 2958 2957 2956 2955 2946 2944 2943 2940 2939 2936 2932 2928
3048 3042 3037 3031 3025 3020 3015 3012 3007 3002 2996 2993 2991 2986 2984 2981 2979 2975 2972 2970 2969 2967 2965 2964 2961 2958 2958 2956 2955 2954 2953 2952 2952 2952 2952 2948 2944 2943 2942 2942 2943 2934 2932 2929
3043 3037 3032 3026 3019 3015 3009 3004 3000 2996 2989 2984 2983 2983 2979 2977 2975 2972 2970 2967 2964 2962 2961 2960 2959 2955 2954 2953 2953 2952 2951 2950 2949 2948 2949 2947 2943 2942 2941 2940 2937 2934 2931 2928
3037 3032 3026 3020 3013 3008 3003 2997 2993 2990 2984 2981 2978 2974 2974 2973 2971 2968 2966 2966 2962 2961 2958 2958 2955 2954 2952 2950 2950 2949 2950 2950 2949 2951 2948 2944 2940 2939 2938 2937 2934 2931 2929 2927
3032 3026 3020 3013 3008 3001 2997 2992 2988 2982 2981 2973 2973 2972 2971 2968 2967 2964 2961 2958 2957 2955 2954 2953 2952 2950 2948 2947 2946 2946 2944 2945 2944 2944 2942 2939 2939 2936 2935 2933 2931 2928 2926 2924
3027 3020 3014 3007 3001 2995 2990 2986 2981 2979 2974 2969 2967 2967 2966 2963 2962 2959 2955 2951 2949 2949 2948 2947 2946 2945 2944 2942 2942 2942 2943 2940 2939 2939 2938 2935 2934 2932 2931 2929 2926 2924 2922 2920
3020 3014 3008 3002 2996 2990 2984 2979 2976 2974 2975 2969 2964 2963 2962 2959 2956 2954 2951 2948 2946 2944 2942 2941 2939 2937 2938 2936 2937 2935 2935 2934 2933 2932 2932 2931 2930 2927 2926 2924 2922 2919 2917 2915
3014 3008 3001 2996 2990 2983 2978 2973 2972 2970 2969 2965 2962 2959 2957 2955 2953 2951 2948 2945 2943 2940 2938 2936 2933 2933 2934 2932 2930 2930 2929 2928 2927 2927 2927 2926 2924 2922 2920 2919 2917 2913 2911 2910
3008 3001 2996 2989 2983 2977 2974 2972 2969 2968 2965 2962 2960 2958 2956 2954 2950 2947 2945 2942 2938 2935 2933 2931 2931 2931 2931 2928 2926 2926 2925 2925 2923 2922 2922 2921 2919 2917 2915 2913 2911 2908 2906 2905
3002 2995 2989 2983 2977 2973 2970 2966 2964 2963 2961 2960 2958 2957 2954 2951 2949 2945 2941 2937 2934 2931 2931 2931 2930 2929 2927 2925 2924 2923 2922 2921 2919 2918 2916 2915 2913 2911 2908 2907 2906 2904 2902 2901
2995 2989 2982 2976 2971 2967 2963 2961 2959 2958 2962 2959 2957 2955 2953 2950 2947 2943 2938 2934 2932 2931 2930 2930 2929 2926 2925 2924 2923 2921 2920 2918 2916 2913 2911 2909 2908 2906 2903 2901 2900 2898 2897 2896
2988 2981 2975 2967 2965 2961 2960 2958 2958 2956 2957 2957 2957 2955 2953 2951 2946 2941 2937 2933 2931 2930 2931 2928 2926 2925 2925 2923 2921 2919 2917 2915 2913 2910 2908 2906 2904 2902 2900 2898 2896 2895 2894 2893
2983 2975 2968 2965 2962 2961 2960 2959 2958 2957 2955 2956 2955 2953 2951 2948 2944 2940 2937 2933 2931 2930 2930 2928 2926 2925 2924 2922 2920 2918 2917 2914 2912 2910 2908 2906 2903 2901 2898 2896 2894 2892 2891 2890
2976 2971 2964 2962 2962 2962 2963 2961 2960 2959 2957 2955 2952 2950 2948 2945 2942 2938 2935 2933 2931 2929 2929 2927 2925 2925 2923 2922 2920 2918 2916 2914 2912 2910 2908 2906 2904 2901 2898 2896 2894 2892 2890 2888
2971 2967 2963 2962 2962 2963 2961 2962 2961 2960 2957 2952 2949 2948 2945 2943 2941 2938 2935 2932 2930 2929 2927 2925 2924 2923 2922 2921 2919 2917 2916 2914 2912 2909 2907 2905 2903 2901 2899 2896 2894 2892 2890 2887
2968 2965 2962 2961 2960 2962 2962 2961 2959 2957 2954 2950 2947 2944 2943 2941 2939 2936 2932 2931 2929 2927 2925 2923 2922 2921 2920 2919 2917 2916 2914 2912 2910 2908 2906 2904 2902 2900 2897 2895 2893 2891 2889 2887
2964 2964 2962 2961 2960 2959 2957 2955 2954 2952 2949 2946 2943 2940 2939 2937 2936 2933 2931 2928 2926 2924 2922 2921 2920 2918 2917 2916 2914 2913 2911 2910 2908 2905 2903 2901 2899 2897 2895 2892 2890 2889 2887 2884
2963 2961 2961 2961 2959 2957 2954 2951 2949 2947 2945 2942 2939 2936 2934 2933 2932 2929 2926 2924 2920 2918 2917 2916 2915 2914 2912 2911 2910 2908 2907 2905 2903 2901 2899 2897 2895 2892 2890 2888 2887 2885 2883 2881
2959 2957 2956 2957 2957 2954 2951 2948 2944 2942 2940 2938 2936 2933 2931 2930 2927 2925 2922 2918 2916 2914 2912 2911 2910 2908 2907 2906 2904 2902 2901 2899 2897 2895 2893 2891 2890 2887 2885 2882 2880 2879 2878 2876
Wind_Speed
24 23 24 24 24 19 25 25 28 23 25 20 21 13 16 13 23 14 14 16 14 14 22 18 14 13 12 19 19 20 19 13 16 27 18 14 6 5 13 9 9 16 7 10
25 26 26 25 25 22 22 26 28 21 22 22 17 10 14 23 23 16 16 17 22 20 21 15 7 12 14 16 21 12 23 8 15 15 8 18 22 28 23 25 17 12 5 8
29 29 29 28 27 25 24 25 19 32 28 18 15 19 25 18 19 25 24 26 28 23 22 18 15 15 12 17 20 21 19 15 16 14 22 29 34 37 32 23 19 21 27 31
29 29 28 27 25 23 23 21 27 25 32 30 27 26 23 25 30 25 27 30 20 20 21 26 29 22 19 27 24 27 22 25 27 28 30 29 33 33 33 30 31 24 41 41
28 29 28 27 26 24 22 22 23 26 28 25 28 24 30 34 26 26 32 30 20 25 30 27 32 31 25 32 28 19 18 23 22 34 32 25 29 28 28 31 29 30 33 46
28 28 28 27 26 26 27 27 26 25 29 28 25 25 26 31 24 32 24 25 26 37 31 32 31 28 32 32 29 28 28 27 22 28 22 21 22 16 11 17 17 18 24 27
27 28 28 28 28 27 26 25 26 28 33 29 27 28 24 26 29 29 25 23 32 31 32 31 29 34 33 30 30 27 32 27 22 23 21 3 7 12 17 16 16 16 18 20
29 29 29 27 27 27 28 28 26 27 33 31 28 23 24 20 24 29 28 25 21 20 20 29 26 26 17 6 10 12 17 21 16 6 8 21 24 8 9 7 15 15 15 16
31 32 31 31 31 28 26 27 27 25 30 29 27 24 26 21 27 26 14 7 12 20 30 21 11 5 14 6 6 11 15 15 22 7 4 5 6 12 16 15 9 11 10 14
32 31 31 31 31 31 32 30 29 27 29 23 29 19 18 27 22 21 19 16 19 18 19 19 17 14 15 7 6 7 8 6 15 20 9 9 15 17 15 6 7 11 10 6
33 33 33 32 32 31 33 32 30 29 32 32 13 26 30 22 12 14 21 25 11 8 9 7 10 9 11 9 7 11 7 3 5 6 5 6 10 16 6 5 11 13 12 11
34 34 34 33 32 31 31 33 31 28 27 34 31 13 25 19 21 23 28 24 20 12 11 10 12 17 12 8 9 16 11 3 8 8 9 22 19 10 12 21 20 20 20 17
36 36 35 34 32 31 30 31 29 29 28 33 15 28 10 19 26 24 27 28 23 21 16 16 17 20 18 19 19 15 7 10 11 15 12 14 14 12 23 23 19 20 20 20
37 36 35 34 32 31 31 30 26 21 25 33 30 13 25 27 21 24 19 19 18 20 19 25 28 28 19 18 18 19 19 16 22 20 21 21 25 22 19 20 20 19 21 22
37 36 35 34 32 30 31 31 25 17 16 26 28 23 17 22 18 15 22 19 14 12 14 17 20 19 22 23 19 20 22 25 21 18 18 20 20 25 24 22 21 22 22 21
38 36 35 33 31 30 30 29 22 21 25 20 17 23 25 10 13 21 19 15 19 18 17 17 16 15 14 12 9 13 17 18 20 18 18 22 21 26 21 21 26 25 23 19
38 36 35 33 31 29 24 20 20 23 21 15 14 14 8 16 18 12 17 20 19 17 15 13 13 10 10 11 6 8 14 17 17 17 18 24 26 24 24 25 24 20 18 18
38 37 36 34 30 23 19 19 18 15 12 11 6 10 16 18 18 21 23 22 18 11 6 7 9 9 10 6 9 11 13 15 17 19 19 21 22 23 23 22 21 19 18 19
39 38 37 33 25 24 23 21 17 9 7 6 7 15 15 19 21 22 24 20 10 7 6 6 7 8 4 6 9 12 13 15 17 19 20 20 21 21 21 21 21 19 18 17
41 40 36 29 26 21 16 7 7 5 4 2 6 12 16 20 20 23 20 8 6 4 4 8 4 3 7 9 10 10 10 10 10 11 11 12 12 11 11 11 11 12 12 12
40 37 31 23 15 11 7 6 6 5 3 7 14 17 21 21 21 20 8 6 5 3 3 4 3 3 8 9 9 9 9 10 11 11 10 10 10 10 10 10 10 9 9 9
38 32 22 11 8 6 6 6 6 7 7 16 16 20 21 22 17 9 7 5 3 3 6 3 2 4 7 7 7 8 9 10 11 12 12 13 12 12 12 12 11 10 10 9
30 19 7 5 4 5 4 8 6 11 17 19 20 18 19 12 11 9 6 4 4 9 2 2 3 4 5 6 7 8 9 11 12 13 13 13 13 13 12 12 12 11 10 10
20 10 4 1 2 3 7 10 15 16 18 18 17 16 12 18 13 6 5 5 6 3 3 3 5 6 6 7 8 9 10 12 13 14 15 15 15 14 14 13 12 11 11 11
11 5 2 2 6 11 14 18 20 18 19 20 18 17 14 14 9 6 6 4 4 5 5 6 9 10 11 11 12 12 13 14 15 16 17 18 18 17 16 16 15 14 13 13
6 2 6 9 12 14 17 19 17 18 18 19 16 8 6 6 5 6 7 5 8 9 11 13 14 14 14 15 15 16 17 17 17 18 18 19 19 20 19 18 17 17 17 16
7 9 11 13 17 19 20 19 20 21 21 18 11 4 5 5 7 8 9 11 16 18 17 18 18 17 17 18 18 18 19 19 19 20 20 20 20 20 20 20 20 18 18 17
Wind_Direction
340 338 333 332 326 311 321 307 320 321 330 321 330 321 304 309 331 329 316 316 309 300 301 302 298 284 275 288 292 313 306 291 297 317 327 309 253 288 353 322 328 300 283 296
339 338 336 333 328 318 301 309 312 323 316 315 307 323 312 296 305 315 311 307 302 306 294 296 272 281 295 300 306 303 304 293 315 323 314 308 322 310 316 318 315 289 266 272
340 338 336 333 327 321 310 314 291 310 308 310 273 304 312 303 299 292 311 306 310 292 289 298 281 275 298 307 298 293 285 271 280 271 288 303 302 308 309 306 292 294 277 296
346 347 350 345 339 331 319 302 295 294 299 308 291 308 306 306 318 308 321 310 306 300 297 308 297 284 280 296 293 273 267 278 289 290 292 297 300 299 302 294 282 267 284 287
351 351 349 346 344 340 329 314 305 308 301 296 292 285 300 305 312 297 305 304 294 309 306 303 300 291 298 304 306 297 291 270 278 288 301 304 300 291 288 293 294 290 284 284
352 352 349 346 345 339 335 330 325 311 311 311 302 302 297 303 299 304 299 299 294 302 299 298 297 286 296 296 288 285 275 271 276 282 298 310 295 305 311 293 299 295 289 286
354 353 349 345 341 336 330 327 322 317 313 309 304 301 300 291 295 290 298 292 285 294 288 296 290 289 290 286 281 270 259 258 268 278 296 258 290 289 303 299 296 302 272 267
351 348 345 342 336 332 328 325 322 316 310 313 321 313 305 305 296 298 296 299 295 292 282 300 303 303 306 295 289 269 257 246 248 240 234 277 294 298 348 314 325 315 316 304
347 346 342 340 334 331 328 322 319 314 312 318 315 319 318 316 315 318 320 282 280 281 292 294 279 282 293 261 302 291 289 235 236 204 233 236 263 309 325 324 303 353 1 344
346 342 339 336 331 329 327 324 321 316 309 318 314 313 313 318 324 309 315 322 316 300 296 285 275 271 267 271 271 294 269 241 227 245 250 263 273 302 308 290 320 320 313 335
345 341 339 334 330 329 324 323 321 316 313 318 312 313 312 309 333 333 330 322 324 308 268 255 272 263 262 265 277 294 284 250 226 220 218 280 316 324 336 307 315 312 311 295
342 339 336 332 328 326 321 319 316 312 297 301 315 300 334 320 303 305 316 313 307 274 274 273 280 285 262 254 301 302 285 244 294 296 286 287 293 300 320 318 304 305 306 306
342 339 335 331 329 325 320 318 314 308 292 304 296 307 293 326 325 315 306 302 294 293 284 280 272 273 285 291 292 282 287 287 285 302 260 294 308 288 306 306 293 298 306 307
342 338 335 332 330 325 321 317 319 310 298 290 300 306 309 313 314 313 328 325 298 286 282 278 276 266 274 277 272 270 280 282 293 284 279 285 290 281 298 295 293 297 300 298
341 338 335 333 330 326 320 319 319 312 282 281 300 311 320 315 312 328 332 330 319 304 291 281 277 277 269 277 277 262 265 274 270 265 270 277 280 296 295 287 300 296 295 295
340 338 336 334 330 324 321 320 326 321 317 306 293 300 314 321 325 325 320 324 322 314 299 298 295 296 273 258 248 250 258 263 266 270 276 283 291 302 296 292 304 299 294 292
339 337 336 333 330 325 320 311 316 305 305 302 294 302 318 329 339 346 331 327 324 318 306 299 302 297 284 271 275 274 286 286 283 282 285 288 291 293 293 299 296 294 286 290
337 336 334 333 332 327 326 318 309 308 313 303 280 304 326 337 339 335 336 335 333 332 318 295 291 276 243 249 277 287 293 294 293 291 290 291 294 294 292 290 289 291 283 290
338 337 336 336 334 326 325 323 322 311 280 279 293 321 329 333 336 334 338 332 331 325 328 288 288 286 263 312 320 316 310 303 299 296 294 292 291 292 289 287 287 292 292 293
338 337 338 340 332 333 339 8 8 23 52 287 347 346 336 330 333 331 333 319 326 324 313 322 300 315 332 329 331 336 338 340 340 337 327 321 317 315 316 307 298 296 297 299
337 338 342 339 348 5 19 20 353 355 13 17 349 341 335 331 330 328 317 308 299 300 307 311 309 336 346 348 352 354 358 2 6 9 8 5 360 354 349 347 341 333 324 316
337 338 340 357 17 14 5 3 15 353 1 341 332 331 329 326 326 320 307 294 275 264 310 276 267 319 341 351 358 1 2 4 4 3 2 2 2 2 360 357 348 342 336 326
337 339 353 4 24 9 17 1 342 331 331 327 316 321 323 321 324 296 288 271 256 299 277 248 249 303 324 331 335 343 344 348 349 348 347 346 345 346 347 344 347 348 344 336
337 332 340 40 36 3 347 339 339 334 328 325 317 308 302 303 307 274 271 271 288 257 248 244 264 275 285 303 307 314 323 327 330 333 334 334 334 332 330 330 330 330 331 330
328 308 267 248 257 311 327 328 328 329 327 324 318 312 301 286 263 259 263 254 248 240 239 253 271 268 272 281 289 296 304 309 313 317 320 321 322 323 321 321 321 320 319 317
319 277 279 280 288 300 311 316 318 323 327 326 325 298 269 256 243 241 234 238 228 244 254 264 267 268 271 275 281 288 294 299 303 306 310 311 311 312 312 312 311 309 308 306
317 309 298 286 286 296 307 315 316 318 320 316 311 253 247 267 253 244 242 243 262 266 271 277 277 277 281 286 289 292 295 298 299 302 303 303 301 302 304 307 308 305 303 300